When you browse on this site, cookies collect data to enhance your experience and personalize the content and advertising you see.
Visit our Privacy Policy to learn more. By continuing to use the site, you agree to this use of cookies and data.

Hourly Weather Porebrica

Today, 12 July, Sunday

Time Temperature Precipitation Wind Pressure Humidity
00:00 +13°C° 0 mm 2 mps 742 mmHg 81%
01:00 +13°C° 0 mm 2 mps 743 mmHg 82%
02:00 +13°C° 0 mm 1 mps 743 mmHg 80%
03:00 +13°C° 0 mm 1 mps 743 mmHg 81%
04:00 +13°C° 0 mm 1 mps 743 mmHg 82%
05:00 +13°C° 0 mm 1 mps 743 mmHg 83%
06:00 +14°C° 0 mm 1 mps 743 mmHg 78%
07:00 +15°C° 0 mm 1 mps 743 mmHg 73%
08:00 +16°C° 0 mm 1 mps 744 mmHg 69%
09:00 +15°C° 0.2 mm 1 mps 744 mmHg 75%
10:00 +15°C° 0.2 mm 1 mps 744 mmHg 82%
11:00 +14°C° 0.2 mm 1 mps 744 mmHg 89%
12:00 +14°C° 0.3 mm 1 mps 743 mmHg 91%
13:00 +13°C° 0.3 mm 1 mps 743 mmHg 93%
14:00 +12°C° 0.3 mm 0 mps 743 mmHg 95%
15:00 +13°C° 0 mm 1 mps 743 mmHg 94%
16:00 +13°C° 0 mm 1 mps 743 mmHg 93%
17:00 +13°C° 0 mm 1 mps 743 mmHg 93%
18:00 +12°C° 0.2 mm 1 mps 743 mmHg 94%
19:00 +12°C° 0.2 mm 1 mps 743 mmHg 95%
20:00 +11°C° 0.2 mm 1 mps 743 mmHg 95%
21:00 +11°C° 0.2 mm 1 mps 743 mmHg 96%
22:00 +11°C° 0.2 mm 1 mps 742 mmHg 97%
23:00 +11°C° 0.2 mm 1 mps 742 mmHg 97%

Tomorrow, 13 July, Monday

Time Temperature Precipitation Wind Pressure Humidity
00:00 +11°C° 0.1 mm 1 mps 742 mmHg 97%
01:00 +11°C° 0.1 mm 1 mps 742 mmHg 97%
02:00 +12°C° 0.1 mm 1 mps 742 mmHg 98%
03:00 +12°C° 0.4 mm 1 mps 741 mmHg 98%
04:00 +12°C° 0.4 mm 1 mps 741 mmHg 98%
05:00 +12°C° 0.4 mm 1 mps 741 mmHg 97%
06:00 +13°C° 0.1 mm 1 mps 741 mmHg 94%
07:00 +14°C° 0.1 mm 1 mps 741 mmHg 91%
08:00 +15°C° 0.1 mm 1 mps 741 mmHg 88%
09:00 +16°C° 0 mm 1 mps 741 mmHg 78%
10:00 +19°C° 0 mm 1 mps 741 mmHg 69%
11:00 +20°C° 0 mm 1 mps 741 mmHg 59%
12:00 +21°C° 0 mm 1 mps 741 mmHg 57%
13:00 +21°C° 0 mm 1 mps 741 mmHg 54%
14:00 +22°C° 0 mm 1 mps 741 mmHg 52%
15:00 +21°C° 0.1 mm 2 mps 740 mmHg 55%
16:00 +20°C° 0.1 mm 2 mps 740 mmHg 58%
17:00 +20°C° 0.1 mm 2 mps 740 mmHg 61%
18:00 +18°C° 0.1 mm 2 mps 740 mmHg 69%
19:00 +18°C° 0.1 mm 1 mps 739 mmHg 77%
20:00 +15°C° 0.1 mm 1 mps 739 mmHg 85%
21:00 +14°C° 0 mm 1 mps 739 mmHg 87%
22:00 +13°C° 0 mm 1 mps 740 mmHg 89%
23:00 +12°C° 0 mm 1 mps 740 mmHg 90%

Day after tomorrow, 14 July, Tuesday

Time Temperature Precipitation Wind Pressure Humidity
00:00 +12°C° 0 mm 1 mps 740 mmHg 89%
01:00 +11°C° 0 mm 1 mps 740 mmHg 88%
02:00 +11°C° 0 mm 1 mps 740 mmHg 87%
03:00 +11°C° 0 mm 1 mps 740 mmHg 87%
04:00 +11°C° 0 mm 1 mps 740 mmHg 87%
05:00 +11°C° 0 mm 1 mps 740 mmHg 86%
06:00 +13°C° 0 mm 2 mps 740 mmHg 78%
07:00 +15°C° 0 mm 2 mps 740 mmHg 71%
08:00 +17°C° 0 mm 2 mps 740 mmHg 63%
09:00 +19°C° 0 mm 3 mps 740 mmHg 57%
10:00 +20°C° 0 mm 3 mps 740 mmHg 52%
11:00 +21°C° 0 mm 3 mps 740 mmHg 46%
12:00 +21°C° 0 mm 3 mps 740 mmHg 46%
13:00 +22°C° 0 mm 3 mps 740 mmHg 45%
14:00 +22°C° 0 mm 4 mps 740 mmHg 44%
15:00 +22°C° 0 mm 4 mps 739 mmHg 46%
16:00 +21°C° 0 mm 3 mps 739 mmHg 48%
17:00 +21°C° 0 mm 3 mps 739 mmHg 50%
18:00 +19°C° 0 mm 3 mps 739 mmHg 57%
19:00 +18°C° 0 mm 3 mps 739 mmHg 65%
20:00 +16°C° 0 mm 2 mps 739 mmHg 72%
21:00 +14°C° 0 mm 3 mps 739 mmHg 74%
22:00 +13°C° 0 mm 3 mps 739 mmHg 76%
23:00 +12°C° 0 mm 3 mps 739 mmHg 78%

15 July, Wednesday

Time Temperature Precipitation Wind Pressure Humidity
00:00 +12°C° 0 mm 3 mps 739 mmHg 79%
01:00 +11°C° 0 mm 3 mps 739 mmHg 81%
02:00 +11°C° 0 mm 3 mps 739 mmHg 82%
03:00 +11°C° 0 mm 3 mps 739 mmHg 80%
04:00 +11°C° 0 mm 3 mps 739 mmHg 77%
05:00 +11°C° 0 mm 3 mps 739 mmHg 74%
06:00 +12°C° 0 mm 3 mps 739 mmHg 71%
07:00 +13°C° 0 mm 4 mps 739 mmHg 69%
08:00 +15°C° 0 mm 4 mps 739 mmHg 66%
09:00 +17°C° 0 mm 4 mps 738 mmHg 62%
10:00 +17°C° 0 mm 4 mps 738 mmHg 58%
11:00 +18°C° 0 mm 4 mps 738 mmHg 54%
12:00 +19°C° 0 mm 5 mps 738 mmHg 53%
13:00 +19°C° 0 mm 5 mps 738 mmHg 52%
14:00 +19°C° 0 mm 5 mps 738 mmHg 51%
15:00 +19°C° 0.1 mm 4 mps 738 mmHg 57%
16:00 +18°C° 0.1 mm 4 mps 738 mmHg 64%
17:00 +17°C° 0.1 mm 3 mps 737 mmHg 71%
18:00 +16°C° 0.1 mm 3 mps 737 mmHg 77%
19:00 +14°C° 0.1 mm 2 mps 737 mmHg 83%
20:00 +13°C° 0.1 mm 2 mps 737 mmHg 90%
21:00 +13°C° 0 mm 1 mps 737 mmHg 90%
22:00 +12°C° 0 mm 1 mps 737 mmHg 91%
23:00 +12°C° 0 mm 1 mps 736 mmHg 91%

16 July, Thursday

Time Temperature Precipitation Wind Pressure Humidity
00:00 +12°C° 0 mm 2 mps 736 mmHg 92%
01:00 +12°C° 0 mm 2 mps 736 mmHg 92%
02:00 +12°C° 0 mm 2 mps 736 mmHg 92%
03:00 +11°C° 0 mm 3 mps 736 mmHg 92%
04:00 +11°C° 0 mm 3 mps 736 mmHg 92%
05:00 +12°C° 0 mm 3 mps 735 mmHg 92%
06:00 +12°C° 0 mm 3 mps 735 mmHg 87%
07:00 +13°C° 0 mm 3 mps 735 mmHg 82%
08:00 +14°C° 0 mm 4 mps 735 mmHg 78%
09:00 +15°C° 0 mm 4 mps 735 mmHg 74%
10:00 +17°C° 0 mm 4 mps 735 mmHg 71%
11:00 +18°C° 0 mm 3 mps 735 mmHg 68%
12:00 +18°C° 0.1 mm 4 mps 735 mmHg 64%
13:00 +19°C° 0.1 mm 4 mps 735 mmHg 60%
14:00 +20°C° 0.1 mm 4 mps 735 mmHg 56%
15:00 +19°C° 0.1 mm 4 mps 735 mmHg 60%
16:00 +19°C° 0.1 mm 4 mps 735 mmHg 65%
17:00 +18°C° 0.1 mm 4 mps 735 mmHg 69%
18:00 +16°C° 0.1 mm 3 mps 735 mmHg 76%
19:00 +14°C° 0.1 mm 3 mps 735 mmHg 83%
20:00 +13°C° 0.1 mm 2 mps 734 mmHg 90%
21:00 +13°C° 0 mm 2 mps 735 mmHg 92%
22:00 +12°C° 0 mm 2 mps 735 mmHg 93%
23:00 +12°C° 0 mm 2 mps 735 mmHg 95%

17 July, Friday

Time Temperature Precipitation Wind Pressure Humidity
00:00 +12°C° 0 mm 2 mps 735 mmHg 95%
01:00 +11°C° 0 mm 3 mps 735 mmHg 95%
02:00 +11°C° 0 mm 3 mps 735 mmHg 94%
03:00 +11°C° 0 mm 3 mps 735 mmHg 94%
04:00 +11°C° 0 mm 3 mps 735 mmHg 93%
05:00 +11°C° 0 mm 3 mps 735 mmHg 92%
06:00 +11°C° 0 mm 3 mps 735 mmHg 87%
07:00 +12°C° 0 mm 3 mps 735 mmHg 83%
08:00 +14°C° 0 mm 2 mps 735 mmHg 78%
09:00 +14°C° 0 mm 2 mps 735 mmHg 75%
10:00 +15°C° 0 mm 2 mps 735 mmHg 72%
11:00 +16°C° 0 mm 2 mps 736 mmHg 69%
12:00 +17°C° 0 mm 2 mps 736 mmHg 64%
13:00 +18°C° 0 mm 2 mps 736 mmHg 58%
14:00 +19°C° 0 mm 2 mps 736 mmHg 52%
15:00 +19°C° 0 mm 2 mps 736 mmHg 54%
16:00 +19°C° 0 mm 2 mps 736 mmHg 55%
17:00 +19°C° 0 mm 2 mps 736 mmHg 57%
18:00 +18°C° 0 mm 1 mps 736 mmHg 64%
19:00 +15°C° 0 mm 1 mps 736 mmHg 72%
20:00 +14°C° 0 mm 1 mps 736 mmHg 79%
21:00 +13°C° 0 mm 1 mps 736 mmHg 83%
22:00 +11°C° 0 mm 1 mps 736 mmHg 86%
23:00 +10°C° 0 mm 1 mps 737 mmHg 90%
Show more